Terminal Aerodrome Forecast
Issued by NWS

Home | Current Version | Previous Version | Text Only | Print | Product List | Glossary On
Versions: 1 2 3 4 5 6 7 8 9 10 11 12 13 14 15 16 17 18 19 20 21 22 23 24 25 26 27 28
000
FTUS46 KOTX 280520
TAFCOE
TAF
KCOE 280520Z 2806/2906 16006KT 6SM FU HZ SCT100 BKN200
     FM281200 12006KT 6SM FU HZ SCT120 BKN150 OVC200
     FM281930 24008KT P6SM SCT100 BKN120 OVC150
     FM290100 04005KT P6SM SCT100 BKN120 OVC150
      AMD LTD TO CLD AND VIS=

USA.gov is the U.S. government's official web portal to all federal, state and local government web resources and services.